Location: Las Navas
(40.6024°N, 4.3345°W)
Time: 01:24:29
(UTC+00:00)

STARLINK-1098 - Pass Details

Date: 03 April 2020
Orbit: 548 x 551 km, 53.0° (Epoch: 27 May)

Event Time Altitude Azimuth Distance (km) Brightness Sun altitude
Rises 19:23:39 0° 311° (NW) 2,728 8.5 -8.1°
Reaches altitude 10° 19:25:57 10° 317° (NW) 1,832 7.3 -8.5°
Maximum altitude 19:30:00 49° 33° (NNE) 715 4.1 -9.3°
Enters shadow 19:33:26 14° 107° (ESE) 1,602 5.3 -9.9°
